Time,TemperatureF,DewpointF,PressureIn,WindDirection,WindDirectionDegrees,WindSpeedMPH,WindSpeedGustMPH,Humidity,HourlyPrecipIn,Conditions,Clouds,dailyrainin,SoftwareType,DateUTC
2013-08-27 00:26:00,81.2,66.9,29.92,SSE,152,3.0,12.0,62,0.00,CLR,,0.00,WeatherDisplay:10.37,2013-08-27 05:26:00,
2013-08-27 00:44:00,80.7,66.9,29.93,SSE,152,3.0,12.0,63,0.00,CLR,,0.00,WeatherDisplay:10.37,2013-08-27 05:44:00,
2013-08-27 00:49:00,80.4,67.1,29.93,SSE,152,3.0,9.0,64,0.00,CLR,,0.00,WeatherDisplay:10.37,2013-08-27 05:49:00,
2013-08-27 00:54:00,80.2,66.9,29.93,SSE,152,3.0,9.0,64,0.00,CLR,,0.00,WeatherDisplay:10.37,2013-08-27 05:54:00,
2013-08-27 00:59:00,80.0,66.7,29.93,SSE,151,6.0,12.0,64,0.00,CLR,,0.00,WeatherDisplay:10.37,2013-08-27 05:59:00,
2013-08-27 01:04:00,79.8,67.0,29.93,SSE,148,5.0,10.0,65,0.00,CLR,,0.00,WeatherDisplay:10.37,2013-08-27 06:04:00,
2013-08-27 01:09:00,79.6,66.8,29.93,SSE,149,6.0,10.0,65,0.00,CLR,,0.00,WeatherDisplay:10.37,2013-08-27 06:09:00,
2013-08-27 01:14:00,79.4,67.0,29.93,SSE,151,3.0,9.0,66,0.00,CLR,,0.00,WeatherDisplay:10.37,2013-08-27 06:14:00,
2013-08-27 01:19:00,79.1,66.8,29.93,SSE,154,3.0,9.0,66,0.00,CLR,,0.00,WeatherDisplay:10.37,2013-08-27 06:19:00,
2013-08-27 01:24:00,79.0,67.1,29.93,SSE,154,5.0,10.0,67,0.00,CLR,,0.00,WeatherDisplay:10.37,2013-08-27 06:24:00,
2013-08-27 01:29:00,78.8,66.9,29.93,SSE,155,3.0,9.0,67,0.00,CLR,,0.00,WeatherDisplay:10.37,2013-08-27 06:29:00,
2013-08-27 01:34:00,78.7,66.8,29.93,SSE,156,3.0,9.0,67,0.00,CLR,,0.00,WeatherDisplay:10.37,2013-08-27 06:34:00,
2013-08-27 01:39:00,78.6,66.7,29.93,SSE,158,5.0,8.0,67,0.00,CLR,,0.00,WeatherDisplay:10.37,2013-08-27 06:39:00,
2013-08-27 01:44:00,78.5,66.6,29.93,SSE,156,3.0,10.0,67,0.00,CLR,,0.00,WeatherDisplay:10.37,2013-08-27 06:44:00,
2013-08-27 01:49:00,78.4,67.0,29.93,SSE,153,5.0,9.0,68,0.00,CLR,,0.00,WeatherDisplay:10.37,2013-08-27 06:49:00,
2013-08-27 01:54:00,78.2,66.8,29.93,SSE,156,5.0,8.0,68,0.00,CLR,,0.00,WeatherDisplay:10.37,2013-08-27 06:54:00,
2013-08-27 01:59:00,78.0,66.6,29.92,SSE,158,6.0,10.0,68,0.00,CLR,,0.00,WeatherDisplay:10.37,2013-08-27 06:59:00,
2013-08-27 02:04:00,77.9,66.5,29.93,SSE,150,5.0,7.0,68,0.00,CLR,,0.00,WeatherDisplay:10.37,2013-08-27 07:04:00,
2013-08-27 02:09:00,77.8,66.8,29.93,SSE,155,3.0,7.0,69,0.00,CLR,,0.00,WeatherDisplay:10.37,2013-08-27 07:09:00,
2013-08-27 02:14:00,77.6,66.6,29.93,SSE,161,3.0,8.0,69,0.00,CLR,,0.00,WeatherDisplay:10.37,2013-08-27 07:14:00,
2013-08-27 02:19:00,77.5,66.5,29.93,SSE,154,3.0,9.0,69,0.00,CLR,,0.00,WeatherDisplay:10.37,2013-08-27 07:19:00,
2013-08-27 02:24:00,77.5,66.5,29.93,SSE,153,3.0,8.0,69,0.00,CLR,,0.00,WeatherDisplay:10.37,2013-08-27 07:24:00,
2013-08-27 02:29:00,77.3,66.7,29.93,SSE,152,2.0,7.0,70,0.00,CLR,,0.00,WeatherDisplay:10.37,2013-08-27 07:29:00,
2013-08-27 02:34:00,77.1,66.6,29.93,SSE,157,3.0,7.0,70,0.00,CLR,,0.00,WeatherDisplay:10.37,2013-08-27 07:34:00,
2013-08-27 02:39:00,77.0,66.5,29.93,SSE,156,3.0,7.0,70,0.00,CLR,,0.00,WeatherDisplay:10.37,2013-08-27 07:39:00,
2013-08-27 02:44:00,77.0,66.4,29.93,SSE,159,3.0,10.0,70,0.00,CLR,,0.00,WeatherDisplay:10.37,2013-08-27 07:44:00,
2013-08-27 02:49:00,76.9,66.4,29.93,SSE,163,5.0,10.0,70,0.00,CLR,,0.00,WeatherDisplay:10.37,2013-08-27 07:49:00,
2013-08-27 02:54:00,76.8,66.7,29.93,SSE,154,3.0,6.0,71,0.00,CLR,,0.00,WeatherDisplay:10.37,2013-08-27 07:54:00,
2013-08-27 02:59:00,76.7,66.6,29.93,SSE,152,3.0,9.0,71,0.00,CLR,,0.00,WeatherDisplay:10.37,2013-08-27 07:59:00,
2013-08-27 03:04:00,76.7,66.6,29.93,SSE,154,5.0,10.0,71,0.00,CLR,,0.00,WeatherDisplay:10.37,2013-08-27 08:04:00,
2013-08-27 03:09:00,76.8,66.3,29.93,SSE,167,5.0,9.0,70,0.00,CLR,,0.00,WeatherDisplay:10.37,2013-08-27 08:09:00,
2013-08-27 03:14:00,76.9,66.4,29.93,SSE,162,6.0,9.0,70,0.00,CLR,,0.00,WeatherDisplay:10.37,2013-08-27 08:14:00,
2013-08-27 03:19:00,76.9,66.4,29.93,SSE,163,5.0,10.0,70,0.00,CLR,,0.00,WeatherDisplay:10.37,2013-08-27 08:19:00,
2013-08-27 03:24:00,76.9,66.4,29.93,SSE,155,5.0,12.0,70,0.00,CLR,,0.00,WeatherDisplay:10.37,2013-08-27 08:24:00,
2013-08-27 03:29:00,76.9,66.4,29.93,SSE,155,3.0,12.0,70,0.00,CLR,,0.00,WeatherDisplay:10.37,2013-08-27 08:29:00,
2013-08-27 03:34:00,76.9,66.4,29.93,SSE,151,6.0,12.0,70,0.00,CLR,,0.00,WeatherDisplay:10.37,2013-08-27 08:34:00,
2013-08-27 03:39:00,77.1,66.1,29.93,SSE,157,3.0,9.0,69,0.00,CLR,,0.00,WeatherDisplay:10.37,2013-08-27 08:39:00,
2013-08-27 03:44:00,77.1,66.1,29.93,South,174,3.0,7.0,69,0.00,CLR,,0.00,WeatherDisplay:10.37,2013-08-27 08:44:00,
2013-08-27 03:49:00,77.2,66.2,29.93,South,173,5.0,9.0,69,0.00,CLR,,0.00,WeatherDisplay:10.37,2013-08-27 08:49:00,
2013-08-27 03:54:00,77.3,66.3,29.92,SSE,167,5.0,10.0,69,0.00,CLR,,0.00,WeatherDisplay:10.37,2013-08-27 08:54:00,
2013-08-27 03:59:00,77.3,66.3,29.92,South,177,2.0,9.0,69,0.00,CLR,,0.00,WeatherDisplay:10.37,2013-08-27 08:59:00,
2013-08-27 04:04:00,77.3,65.9,29.92,SSE,167,3.0,12.0,68,0.00,CLR,,0.00,WeatherDisplay:10.37,2013-08-27 09:04:00,
2013-08-27 04:09:00,77.3,65.9,29.92,South,169,2.0,13.0,68,0.00,CLR,,0.00,WeatherDisplay:10.37,2013-08-27 09:09:00,
2013-08-27 04:14:00,77.3,65.9,29.92,SSW,195,5.0,8.0,68,0.00,CLR,,0.00,WeatherDisplay:10.37,2013-08-27 09:14:00,
2013-08-27 04:19:00,77.3,65.9,29.92,South,186,3.0,9.0,68,0.00,CLR,,0.00,WeatherDisplay:10.37,2013-08-27 09:19:00,
2013-08-27 04:24:00,77.3,65.9,29.92,SSW,192,3.0,13.0,68,0.00,CLR,,0.00,WeatherDisplay:10.37,2013-08-27 09:24:00,
2013-08-27 04:29:00,77.3,65.9,29.92,SSW,213,5.0,9.0,68,0.00,CLR,,0.00,WeatherDisplay:10.37,2013-08-27 09:29:00,
2013-08-27 04:34:00,77.2,66.2,29.92,SW,217,3.0,8.0,69,0.00,CLR,,0.00,WeatherDisplay:10.37,2013-08-27 09:34:00,
2013-08-27 04:39:00,77.0,66.0,29.92,SSW,207,5.0,8.0,69,0.00,CLR,,0.00,WeatherDisplay:10.37,2013-08-27 09:39:00,
2013-08-27 04:44:00,76.9,66.0,29.92,SW,216,3.0,10.0,69,0.00,CLR,,0.00,WeatherDisplay:10.37,2013-08-27 09:44:00,
2013-08-27 04:49:00,76.8,65.8,29.92,SSW,206,3.0,10.0,69,0.00,CLR,,0.00,WeatherDisplay:10.37,2013-08-27 09:49:00,
2013-08-27 04:54:00,76.7,65.7,29.92,SSW,204,3.0,9.0,69,0.00,CLR,,0.00,WeatherDisplay:10.37,2013-08-27 09:54:00,
2013-08-27 04:59:00,76.5,66.0,29.92,SSW,202,5.0,10.0,70,0.00,CLR,,0.00,WeatherDisplay:10.37,2013-08-27 09:59:00,
2013-08-27 05:04:00,76.5,66.0,29.92,SSW,205,6.0,12.0,70,0.00,CLR,,0.00,WeatherDisplay:10.37,2013-08-27 10:04:00,
2013-08-27 05:09:00,76.4,65.9,29.92,SSW,208,3.0,15.0,70,0.00,CLR,,0.00,WeatherDisplay:10.37,2013-08-27 10:09:00,
2013-08-27 05:14:00,76.3,65.8,29.92,SSW,209,3.0,9.0,70,0.00,CLR,,0.00,WeatherDisplay:10.37,2013-08-27 10:14:00,
2013-08-27 05:19:00,76.3,65.8,29.92,SW,214,5.0,10.0,70,0.00,CLR,,0.00,WeatherDisplay:10.37,2013-08-27 10:19:00,
2013-08-27 05:24:00,76.2,65.7,29.92,SSW,204,3.0,7.0,70,0.00,CLR,,0.00,WeatherDisplay:10.37,2013-08-27 10:24:00,
2013-08-27 05:29:00,76.2,65.7,29.92,SSW,198,3.0,8.0,70,0.00,CLR,,0.00,WeatherDisplay:10.37,2013-08-27 10:29:00,
2013-08-27 05:34:00,76.0,65.5,29.92,SSW,208,3.0,7.0,70,0.00,CLR,,0.00,WeatherDisplay:10.37,2013-08-27 10:34:00,
2013-08-27 05:39:00,76.0,65.5,29.92,SSW,210,3.0,9.0,70,0.00,CLR,,0.00,WeatherDisplay:10.37,2013-08-27 10:39:00,
2013-08-27 05:44:00,76.1,65.6,29.92,SSW,212,3.0,13.0,70,0.00,CLR,,0.00,WeatherDisplay:10.37,2013-08-27 10:44:00,
2013-08-27 05:49:00,76.0,65.5,29.92,SSW,213,3.0,9.0,70,0.00,CLR,,0.00,WeatherDisplay:10.37,2013-08-27 10:49:00,
2013-08-27 05:54:00,75.9,65.4,29.92,SSW,193,5.0,8.0,70,0.00,CLR,,0.00,WeatherDisplay:10.37,2013-08-27 10:54:00,
2013-08-27 05:59:00,75.8,65.3,29.92,SSW,195,5.0,10.0,70,0.00,CLR,,0.00,WeatherDisplay:10.37,2013-08-27 10:59:00,
2013-08-27 06:04:00,75.8,65.3,29.92,SSW,205,5.0,10.0,70,0.00,CLR,,0.00,WeatherDisplay:10.37,2013-08-27 11:04:00,
2013-08-27 06:09:00,75.7,65.3,29.92,SSW,208,5.0,10.0,70,0.00,CLR,,0.00,WeatherDisplay:10.37,2013-08-27 11:09:00,
2013-08-27 06:14:00,75.7,65.2,29.92,SW,214,3.0,8.0,70,0.00,CLR,,0.00,WeatherDisplay:10.37,2013-08-27 11:14:00,
2013-08-27 06:19:00,75.7,65.6,29.92,SSW,205,2.0,8.0,71,0.00,CLR,,0.00,WeatherDisplay:10.37,2013-08-27 11:19:00,
2013-08-27 06:24:00,75.6,65.5,29.92,SSW,195,5.0,10.0,71,0.00,CLR,,0.00,WeatherDisplay:10.37,2013-08-27 11:24:00,
2013-08-27 06:29:00,75.5,65.4,29.92,SSW,208,5.0,12.0,71,0.00,CLR,,0.00,WeatherDisplay:10.37,2013-08-27 11:29:00,
2013-08-27 06:34:00,75.4,65.3,29.92,SSW,211,3.0,9.0,71,0.00,CLR,,0.00,WeatherDisplay:10.37,2013-08-27 11:34:00,
2013-08-27 06:39:00,75.3,65.2,29.92,South,182,2.0,8.0,71,0.00,CLR,,0.00,WeatherDisplay:10.37,2013-08-27 11:39:00,
2013-08-27 06:44:00,75.3,65.2,29.92,South,188,3.0,9.0,71,0.00,CLR,,0.00,WeatherDisplay:10.37,2013-08-27 11:44:00,
2013-08-27 06:49:00,75.2,65.6,29.92,SSW,207,5.0,12.0,72,0.00,CLR,,0.00,WeatherDisplay:10.37,2013-08-27 11:49:00,
2013-08-27 06:54:00,75.1,65.5,29.92,SSW,203,3.0,12.0,72,0.00,CLR,,0.00,WeatherDisplay:10.37,2013-08-27 11:54:00,
2013-08-27 06:59:00,75.1,65.5,29.92,SSW,203,5.0,9.0,72,0.00,CLR,,0.00,WeatherDisplay:10.37,2013-08-27 11:59:00,
2013-08-27 07:04:00,75.1,65.5,29.92,SSW,213,5.0,12.0,72,0.00,CLR,,0.00,WeatherDisplay:10.37,2013-08-27 12:04:00,
2013-08-27 07:09:00,75.1,65.5,29.92,SW,218,6.0,12.0,72,0.00,CLR,,0.00,WeatherDisplay:10.37,2013-08-27 12:09:00,
2013-08-27 07:14:00,75.1,65.5,29.93,SSW,211,5.0,8.0,72,0.00,CLR,,0.00,WeatherDisplay:10.37,2013-08-27 12:14:00,
2013-08-27 07:19:00,75.1,65.4,29.93,SSW,211,2.0,7.0,72,0.00,CLR,,0.00,WeatherDisplay:10.37,2013-08-27 12:19:00,
2013-08-27 07:24:00,75.1,65.5,29.92,SSW,213,6.0,12.0,72,0.00,CLR,,0.00,WeatherDisplay:10.37,2013-08-27 12:24:00,
2013-08-27 07:29:00,75.2,65.5,29.92,SW,221,3.0,12.0,72,0.00,CLR,,0.00,WeatherDisplay:10.37,2013-08-27 12:29:00,
2013-08-27 07:34:00,75.2,65.6,29.92,SSW,211,5.0,12.0,72,0.00,CLR,,0.00,WeatherDisplay:10.37,2013-08-27 12:34:00,
2013-08-27 07:39:00,75.3,65.6,29.92,SSW,209,7.0,12.0,72,0.00,CLR,,0.00,WeatherDisplay:10.37,2013-08-27 12:39:00,
2013-08-27 07:44:00,75.3,65.6,29.92,SSW,208,3.0,7.0,72,0.00,CLR,,0.00,WeatherDisplay:10.37,2013-08-27 12:44:00,
2013-08-27 07:49:00,75.3,65.6,29.92,SSW,207,5.0,10.0,72,0.00,CLR,,0.00,WeatherDisplay:10.37,2013-08-27 12:49:00,
2013-08-27 07:54:00,75.5,65.8,29.92,SSW,207,2.0,12.0,72,0.00,CLR,,0.00,WeatherDisplay:10.37,2013-08-27 12:54:00,
2013-08-27 07:59:00,75.6,65.6,29.92,SSW,213,5.0,8.0,71,0.00,CLR,,0.00,WeatherDisplay:10.37,2013-08-27 12:59:00,
2013-08-27 08:04:00,75.8,65.7,29.92,SSW,206,3.0,12.0,71,0.00,CLR,,0.00,WeatherDisplay:10.37,2013-08-27 13:04:00,
2013-08-27 08:09:00,76.0,65.9,29.92,SW,215,2.0,10.0,71,0.00,CLR,,0.00,WeatherDisplay:10.37,2013-08-27 13:09:00,
2013-08-27 08:14:00,76.1,65.6,29.92,SW,219,5.0,8.0,70,0.00,CLR,,0.00,WeatherDisplay:10.37,2013-08-27 13:14:00,
2013-08-27 08:19:00,76.5,66.0,29.92,SW,228,3.0,13.0,70,0.00,CLR,,0.00,WeatherDisplay:10.37,2013-08-27 13:19:00,
2013-08-27 08:24:00,76.8,65.9,29.92,SW,223,6.0,10.0,69,0.00,CLR,,0.00,WeatherDisplay:10.37,2013-08-27 13:24:00,
2013-08-27 08:29:00,77.1,65.7,29.93,SW,218,5.0,12.0,68,0.00,CLR,,0.00,WeatherDisplay:10.37,2013-08-27 13:29:00,
2013-08-27 08:34:00,77.3,65.9,29.93,SW,220,5.0,9.0,68,0.00,CLR,,0.00,WeatherDisplay:10.37,2013-08-27 13:34:00,
2013-08-27 08:39:00,77.5,66.1,29.92,SW,216,6.0,12.0,68,0.00,CLR,,0.00,WeatherDisplay:10.37,2013-08-27 13:39:00,
2013-08-27 08:44:00,77.8,66.0,29.92,SW,215,5.0,9.0,67,0.00,CLR,,0.00,WeatherDisplay:10.37,2013-08-27 13:44:00,
2013-08-27 08:49:00,78.0,66.2,29.92,SW,216,7.0,12.0,67,0.00,CLR,,0.00,WeatherDisplay:10.37,2013-08-27 13:49:00,
2013-08-27 08:59:00,78.4,66.1,29.92,SW,233,6.0,10.0,66,0.00,CLR,,0.00,WeatherDisplay:10.37,2013-08-27 13:59:00,
2013-08-27 09:04:00,78.6,66.3,29.92,SW,231,5.0,9.0,66,0.00,CLR,,0.00,WeatherDisplay:10.37,2013-08-27 14:04:00,
2013-08-27 09:09:00,78.8,66.0,29.92,SW,226,3.0,13.0,65,0.00,CLR,,0.00,WeatherDisplay:10.37,2013-08-27 14:09:00,
2013-08-27 09:14:00,79.2,66.4,29.93,SW,233,3.0,9.0,65,0.00,CLR,,0.00,WeatherDisplay:10.37,2013-08-27 14:14:00,
2013-08-27 09:19:00,79.4,66.2,29.93,WSW,238,6.0,13.0,64,0.00,CLR,,0.00,WeatherDisplay:10.37,2013-08-27 14:19:00,
2013-08-27 09:24:00,79.7,66.4,29.93,WSW,239,6.0,12.0,64,0.00,CLR,,0.00,WeatherDisplay:10.37,2013-08-27 14:24:00,
2013-08-27 09:29:00,80.1,66.4,29.93,SW,235,3.0,12.0,63,0.00,CLR,,0.00,WeatherDisplay:10.37,2013-08-27 14:29:00,
2013-08-27 09:34:00,80.3,66.6,29.93,WSW,240,5.0,12.0,63,0.00,CLR,,0.00,WeatherDisplay:10.37,2013-08-27 14:34:00,
2013-08-27 09:39:00,80.7,66.5,29.92,WSW,239,5.0,13.0,62,0.00,CLR,,0.00,WeatherDisplay:10.37,2013-08-27 14:39:00,
2013-08-27 09:44:00,81.0,66.8,29.93,SW,230,5.0,13.0,62,0.00,CLR,,0.00,WeatherDisplay:10.37,2013-08-27 14:44:00,
2013-08-27 09:49:00,81.2,66.5,29.93,SW,236,7.0,12.0,61,0.00,CLR,,0.00,WeatherDisplay:10.37,2013-08-27 14:49:00,
2013-08-27 09:54:00,81.4,66.7,29.93,SW,235,6.0,9.0,61,0.00,CLR,,0.00,WeatherDisplay:10.37,2013-08-27 14:54:00,
2013-08-27 09:59:00,81.6,67.3,29.93,SW,235,6.0,10.0,62,0.00,CLR,,0.00,WeatherDisplay:10.37,2013-08-27 14:59:00,
2013-08-27 10:04:00,81.8,66.6,29.93,WSW,238,7.0,12.0,60,0.00,CLR,,0.00,WeatherDisplay:10.37,2013-08-27 15:04:00,
2013-08-27 10:09:00,82.1,67.3,29.93,SW,232,5.0,12.0,61,0.00,CLR,,0.00,WeatherDisplay:10.37,2013-08-27 15:09:00,
2013-08-27 10:14:00,82.3,67.5,29.93,SW,221,3.0,12.0,61,0.00,CLR,,0.00,WeatherDisplay:10.37,2013-08-27 15:14:00,
2013-08-27 10:19:00,82.4,67.6,29.93,SW,223,5.0,9.0,61,0.00,CLR,,0.00,WeatherDisplay:10.37,2013-08-27 15:19:00,
2013-08-27 10:24:00,82.7,67.4,29.93,SW,231,3.0,10.0,60,0.00,CLR,,0.00,WeatherDisplay:10.37,2013-08-27 15:24:00,
2013-08-27 10:29:00,83.0,67.7,29.93,SW,219,3.0,7.0,60,0.00,CLR,,0.00,WeatherDisplay:10.37,2013-08-27 15:29:00,
2013-08-27 10:34:00,83.4,68.1,29.93,SW,222,3.0,12.0,60,0.00,CLR,,0.00,WeatherDisplay:10.37,2013-08-27 15:34:00,
2013-08-27 10:39:00,83.4,67.6,29.93,SW,229,3.0,12.0,59,0.00,CLR,,0.00,WeatherDisplay:10.37,2013-08-27 15:39:00,
2013-08-27 10:44:00,83.7,67.4,29.93,SW,225,3.0,9.0,58,0.00,CLR,,0.00,WeatherDisplay:10.37,2013-08-27 15:44:00,
2013-08-27 10:49:00,83.9,67.5,29.93,SW,226,6.0,9.0,58,0.00,CLR,,0.00,WeatherDisplay:10.37,2013-08-27 15:49:00,
2013-08-27 10:54:00,84.2,67.4,29.93,SW,230,5.0,10.0,57,0.00,CLR,,0.00,WeatherDisplay:10.37,2013-08-27 15:54:00,
2013-08-27 10:59:00,84.5,68.1,29.93,SW,233,3.0,10.0,58,0.00,CLR,,0.00,WeatherDisplay:10.37,2013-08-27 15:59:00,
2013-08-27 11:04:00,84.8,67.4,29.92,WSW,246,6.0,10.0,56,0.00,CLR,,0.00,WeatherDisplay:10.37,2013-08-27 16:04:00,
2013-08-27 11:09:00,85.1,68.2,29.92,SW,228,3.0,9.0,57,0.00,CLR,,0.00,WeatherDisplay:10.37,2013-08-27 16:09:00,
2013-08-27 11:14:00,85.4,67.9,29.92,SW,214,5.0,12.0,56,0.00,CLR,,0.00,WeatherDisplay:10.37,2013-08-27 16:14:00,
2013-08-27 11:19:00,85.5,68.0,29.92,SW,218,5.0,8.0,56,0.00,CLR,,0.00,WeatherDisplay:10.37,2013-08-27 16:19:00,
2013-08-27 11:24:00,85.7,68.2,29.92,SSW,211,6.0,8.0,56,0.00,CLR,,0.00,WeatherDisplay:10.37,2013-08-27 16:24:00,
2013-08-27 11:29:00,86.0,67.9,29.92,SW,231,5.0,12.0,55,0.00,CLR,,0.00,WeatherDisplay:10.37,2013-08-27 16:29:00,
2013-08-27 11:34:00,86.3,68.8,29.92,SW,234,3.0,8.0,56,0.00,CLR,,0.00,WeatherDisplay:10.37,2013-08-27 16:34:00,
2013-08-27 11:39:00,86.6,68.5,29.92,SW,221,5.0,8.0,55,0.00,CLR,,0.00,WeatherDisplay:10.37,2013-08-27 16:39:00,
2013-08-27 11:44:00,86.6,68.0,29.93,SW,236,6.0,12.0,54,0.00,CLR,,0.00,WeatherDisplay:10.37,2013-08-27 16:44:00,
2013-08-27 11:49:00,86.7,69.1,29.92,SW,234,3.0,9.0,56,0.00,CLR,,0.00,WeatherDisplay:10.37,2013-08-27 16:49:00,
2013-08-27 11:54:00,87.2,69.6,29.92,WSW,256,5.0,12.0,56,0.00,CLR,,0.00,WeatherDisplay:10.37,2013-08-27 16:54:00,
2013-08-27 11:59:00,87.3,69.2,29.92,WSW,254,2.0,9.0,55,0.00,CLR,,0.00,WeatherDisplay:10.37,2013-08-27 16:59:00,
2013-08-27 12:04:00,87.4,68.7,29.92,SW,235,5.0,9.0,54,0.00,CLR,,0.00,WeatherDisplay:10.37,2013-08-27 17:04:00,
2013-08-27 12:09:00,87.8,69.6,29.92,SW,225,3.0,7.0,55,0.00,CLR,,0.00,WeatherDisplay:10.37,2013-08-27 17:09:00,
2013-08-27 12:14:00,88.1,69.4,29.92,SW,231,3.0,8.0,54,0.00,CLR,,0.00,WeatherDisplay:10.37,2013-08-27 17:14:00,
2013-08-27 12:19:00,88.1,68.8,29.92,SW,235,3.0,8.0,53,0.00,CLR,,0.00,WeatherDisplay:10.37,2013-08-27 17:19:00,
2013-08-27 12:24:00,88.0,68.8,29.92,WSW,238,5.0,9.0,53,0.00,CLR,,0.00,WeatherDisplay:10.37,2013-08-27 17:24:00,
2013-08-27 12:29:00,88.2,69.5,29.92,WSW,238,3.0,8.0,54,0.00,CLR,,0.00,WeatherDisplay:10.37,2013-08-27 17:29:00,
2013-08-27 12:34:00,88.9,69.5,29.92,SSW,203,3.0,8.0,53,0.00,CLR,,0.00,WeatherDisplay:10.37,2013-08-27 17:34:00,
2013-08-27 12:39:00,89.4,69.5,29.92,South,175,5.0,7.0,52,0.00,CLR,,0.00,WeatherDisplay:10.37,2013-08-27 17:39:00,
2013-08-27 12:44:00,89.8,70.4,29.92,SSW,195,3.0,8.0,53,0.00,CLR,,0.00,WeatherDisplay:10.37,2013-08-27 17:44:00,
2013-08-27 12:49:00,90.1,70.7,29.91,SSW,211,2.0,6.0,53,0.00,CLR,,0.00,WeatherDisplay:10.37,2013-08-27 17:49:00,
2013-08-27 12:54:00,90.2,70.2,29.91,SW,231,3.0,9.0,52,0.00,CLR,,0.00,WeatherDisplay:10.37,2013-08-27 17:54:00,
2013-08-27 12:59:00,90.2,69.6,29.91,SW,217,2.0,9.0,51,0.00,CLR,,0.00,WeatherDisplay:10.37,2013-08-27 17:59:00,
2013-08-27 13:04:00,90.5,70.5,29.91,SSW,195,5.0,9.0,52,0.00,CLR,,0.00,WeatherDisplay:10.37,2013-08-27 18:04:00,
2013-08-27 13:09:00,91.0,70.3,29.91,SSW,200,3.0,6.0,51,0.00,CLR,,0.00,WeatherDisplay:10.37,2013-08-27 18:09:00,
2013-08-27 13:14:00,91.2,70.0,29.90,South,189,5.0,10.0,50,0.00,CLR,,0.00,WeatherDisplay:10.37,2013-08-27 18:14:00,
2013-08-27 13:19:00,91.5,70.9,29.90,South,180,2.0,7.0,51,0.00,CLR,,0.00,WeatherDisplay:10.37,2013-08-27 18:19:00,
2013-08-27 13:24:00,92.0,70.7,29.90,SSE,163,5.0,8.0,50,0.00,CLR,,0.00,WeatherDisplay:10.37,2013-08-27 18:24:00,
2013-08-27 13:29:00,92.3,69.8,29.90,SSE,165,3.0,9.0,48,0.00,CLR,,0.00,WeatherDisplay:10.37,2013-08-27 18:29:00,
2013-08-27 13:34:00,92.3,70.4,29.90,SSE,162,5.0,12.0,49,0.00,CLR,,0.00,WeatherDisplay:10.37,2013-08-27 18:34:00,
2013-08-27 13:39:00,92.2,70.3,29.90,South,173,2.0,9.0,49,0.00,CLR,,0.00,WeatherDisplay:10.37,2013-08-27 18:39:00,
2013-08-27 13:44:00,92.5,70.6,29.90,South,186,5.0,10.0,49,0.00,CLR,,0.00,WeatherDisplay:10.37,2013-08-27 18:44:00,
2013-08-27 13:49:00,92.6,70.6,29.90,SSE,162,6.0,12.0,49,0.00,CLR,,0.00,WeatherDisplay:10.37,2013-08-27 18:49:00,
2013-08-27 13:54:00,92.8,71.4,29.90,South,169,3.0,10.0,50,0.00,CLR,,0.00,WeatherDisplay:10.37,2013-08-27 18:54:00,
2013-08-27 13:59:00,92.9,70.3,29.90,South,186,3.0,8.0,48,0.00,CLR,,0.00,WeatherDisplay:10.37,2013-08-27 18:59:00,
2013-08-27 14:04:00,93.1,69.3,29.90,SSW,195,6.0,9.0,46,0.00,CLR,,0.00,WeatherDisplay:10.37,2013-08-27 19:04:00,
2013-08-27 14:09:00,93.0,71.1,29.90,South,176,3.0,10.0,49,0.00,CLR,,0.00,WeatherDisplay:10.37,2013-08-27 19:09:00,
2013-08-27 14:14:00,93.3,70.7,29.90,South,175,3.0,12.0,48,0.00,CLR,,0.00,WeatherDisplay:10.37,2013-08-27 19:14:00,
2013-08-27 14:19:00,93.3,71.3,29.90,South,174,3.0,12.0,49,0.00,CLR,,0.00,WeatherDisplay:10.37,2013-08-27 19:19:00,
2013-08-27 14:24:00,93.4,69.5,29.90,SSE,164,3.0,12.0,46,0.00,CLR,,0.00,WeatherDisplay:10.37,2013-08-27 19:24:00,
2013-08-27 14:29:00,93.8,71.1,29.90,SSE,165,2.0,9.0,48,0.00,CLR,,0.00,WeatherDisplay:10.37,2013-08-27 19:29:00,
2013-08-27 14:34:00,94.1,69.5,29.90,South,173,5.0,10.0,45,0.00,CLR,,0.00,WeatherDisplay:10.37,2013-08-27 19:34:00,
2013-08-27 14:39:00,94.0,68.8,29.90,SSW,205,5.0,17.0,44,0.00,CLR,,0.00,WeatherDisplay:10.37,2013-08-27 19:39:00,
2013-08-27 14:44:00,94.0,69.4,29.90,SW,229,5.0,14.0,45,0.00,CLR,,0.00,WeatherDisplay:10.37,2013-08-27 19:44:00,
2013-08-27 14:49:00,94.2,69.6,29.90,SSW,208,5.0,11.0,45,0.00,CLR,,0.00,WeatherDisplay:10.37,2013-08-27 19:49:00,
2013-08-27 14:54:00,94.6,68.7,29.90,South,190,5.0,12.0,43,0.00,CLR,,0.00,WeatherDisplay:10.37,2013-08-27 19:54:00,
2013-08-27 14:59:00,94.9,68.2,29.90,SSW,208,6.0,10.0,42,0.00,CLR,,0.00,WeatherDisplay:10.37,2013-08-27 19:59:00,
2013-08-27 15:04:00,94.8,68.2,29.90,SW,224,3.0,9.0,42,0.00,CLR,,0.00,WeatherDisplay:10.37,2013-08-27 20:04:00,
2013-08-27 15:09:00,94.9,68.2,29.89,SSW,207,6.0,10.0,42,0.00,CLR,,0.00,WeatherDisplay:10.37,2013-08-27 20:09:00,
2013-08-27 15:14:00,94.7,68.0,29.89,SW,224,3.0,12.0,42,0.00,CLR,,0.00,WeatherDisplay:10.37,2013-08-27 20:14:00,
2013-08-27 15:19:00,94.8,69.5,29.89,SW,225,5.0,10.0,44,0.00,CLR,,0.00,WeatherDisplay:10.37,2013-08-27 20:19:00,
2013-08-27 15:24:00,95.1,71.0,29.89,SSW,206,5.0,9.0,46,0.00,CLR,,0.00,WeatherDisplay:10.37,2013-08-27 20:24:00,
2013-08-27 15:29:00,95.1,69.1,29.89,South,180,6.0,13.0,43,0.00,CLR,,0.00,WeatherDisplay:10.37,2013-08-27 20:29:00,
2013-08-27 15:34:00,95.0,69.0,29.89,South,170,5.0,14.0,43,0.00,CLR,,0.00,WeatherDisplay:10.37,2013-08-27 20:34:00,
2013-08-27 15:39:00,94.8,68.1,29.89,SSE,162,5.0,10.0,42,0.00,CLR,,0.00,WeatherDisplay:10.37,2013-08-27 20:39:00,
2013-08-27 15:44:00,94.7,68.7,29.89,SSE,161,5.0,12.0,43,0.00,CLR,,0.00,WeatherDisplay:10.37,2013-08-27 20:44:00,
2013-08-27 15:49:00,94.5,68.5,29.89,South,173,6.0,10.0,43,0.00,CLR,,0.00,WeatherDisplay:10.37,2013-08-27 20:49:00,
2013-08-27 15:54:00,94.6,68.0,29.89,South,188,5.0,8.0,42,0.00,CLR,,0.00,WeatherDisplay:10.37,2013-08-27 20:54:00,
2013-08-27 15:59:00,94.7,66.6,29.89,South,172,6.0,12.0,40,0.00,CLR,,0.00,WeatherDisplay:10.37,2013-08-27 20:59:00,
2013-08-27 16:04:00,94.8,67.4,29.89,SSW,202,7.0,12.0,41,0.00,CLR,,0.00,WeatherDisplay:10.37,2013-08-27 21:04:00,
2013-08-27 16:09:00,94.7,67.3,29.89,SW,224,7.0,12.0,41,0.00,CLR,,0.00,WeatherDisplay:10.37,2013-08-27 21:09:00,
2013-08-27 16:29:00,94.7,67.4,29.89,SW,231,5.0,13.0,41,0.00,CLR,,0.00,WeatherDisplay:10.37,2013-08-27 21:29:00,
2013-08-27 16:49:00,94.7,68.0,29.89,SSW,200,3.0,9.0,42,0.00,CLR,,0.00,WeatherDisplay:10.37,2013-08-27 21:49:00,
2013-08-27 16:54:00,94.6,67.3,29.89,SW,215,3.0,10.0,41,0.00,CLR,,0.00,WeatherDisplay:10.37,2013-08-27 21:54:00,
2013-08-27 16:59:00,94.3,66.3,29.89,SW,229,7.0,12.0,40,0.00,CLR,,0.00,WeatherDisplay:10.37,2013-08-27 21:59:00,
2013-08-27 17:04:00,94.0,66.7,29.89,SW,224,6.0,12.0,41,0.00,CLR,,0.00,WeatherDisplay:10.37,2013-08-27 22:04:00,
2013-08-27 17:09:00,93.9,66.6,29.89,SW,217,3.0,10.0,41,0.00,CLR,,0.00,WeatherDisplay:10.37,2013-08-27 22:09:00,
2013-08-27 17:14:00,93.8,67.2,29.89,SW,217,5.0,10.0,42,0.00,CLR,,0.00,WeatherDisplay:10.37,2013-08-27 22:14:00,
2013-08-27 17:19:00,93.7,67.8,29.88,SW,225,3.0,8.0,43,0.00,CLR,,0.00,WeatherDisplay:10.37,2013-08-27 22:19:00,
2013-08-27 17:24:00,93.6,67.1,29.88,SW,216,3.0,12.0,42,0.00,CLR,,0.00,WeatherDisplay:10.37,2013-08-27 22:24:00,
2013-08-27 17:29:00,93.6,67.7,29.88,SW,216,2.0,10.0,43,0.00,CLR,,0.00,WeatherDisplay:10.37,2013-08-27 22:29:00,
2013-08-27 17:34:00,93.5,69.0,29.89,SW,230,3.0,8.0,45,0.00,CLR,,0.00,WeatherDisplay:10.37,2013-08-27 22:34:00,
2013-08-27 17:39:00,93.3,68.8,29.88,WSW,237,2.0,10.0,45,0.00,CLR,,0.00,WeatherDisplay:10.37,2013-08-27 22:39:00,
2013-08-27 17:44:00,93.2,68.0,29.89,SW,227,6.0,10.0,44,0.00,CLR,,0.00,WeatherDisplay:10.37,2013-08-27 22:44:00,
2013-08-27 17:49:00,93.0,66.5,29.89,SW,220,5.0,10.0,42,0.00,CLR,,0.00,WeatherDisplay:10.37,2013-08-27 22:49:00,
2013-08-27 17:54:00,92.8,67.0,29.89,SW,216,3.0,13.0,43,0.00,CLR,,0.00,WeatherDisplay:10.37,2013-08-27 22:54:00,
2013-08-27 17:59:00,92.7,66.9,29.89,SW,216,5.0,10.0,43,0.00,CLR,,0.00,WeatherDisplay:10.37,2013-08-27 22:59:00,
2013-08-27 18:04:00,92.6,66.8,29.88,SW,225,5.0,12.0,43,0.00,CLR,,0.00,WeatherDisplay:10.37,2013-08-27 23:04:00,
2013-08-27 18:09:00,92.4,67.3,29.88,SW,220,3.0,6.0,44,0.00,CLR,,0.00,WeatherDisplay:10.37,2013-08-27 23:09:00,
2013-08-27 18:14:00,92.3,67.2,29.88,SSW,207,5.0,10.0,44,0.00,CLR,,0.00,WeatherDisplay:10.37,2013-08-27 23:14:00,
2013-08-27 18:19:00,92.1,66.4,29.88,SSW,198,5.0,8.0,43,0.00,CLR,,0.00,WeatherDisplay:10.37,2013-08-27 23:19:00,
2013-08-27 18:24:00,92.1,67.1,29.88,SSW,207,3.0,8.0,44,0.00,CLR,,0.00,WeatherDisplay:10.37,2013-08-27 23:24:00,
2013-08-27 18:29:00,92.0,67.0,29.88,SW,215,2.0,8.0,44,0.00,CLR,,0.00,WeatherDisplay:10.37,2013-08-27 23:29:00,
2013-08-27 18:34:00,91.9,67.5,29.88,SW,214,1.0,4.0,45,0.00,CLR,,0.00,WeatherDisplay:10.37,2013-08-27 23:34:00,
2013-08-27 18:39:00,91.7,68.0,29.88,SSW,205,1.0,3.0,46,0.00,CLR,,0.00,WeatherDisplay:10.37,2013-08-27 23:39:00,
2013-08-27 18:44:00,91.6,67.9,29.88,SSW,200,2.0,4.0,46,0.00,CLR,,0.00,WeatherDisplay:10.37,2013-08-27 23:44:00,
2013-08-27 18:49:00,91.4,68.3,29.88,South,184,2.0,5.0,47,0.00,CLR,,0.00,WeatherDisplay:10.37,2013-08-27 23:49:00,
2013-08-27 18:54:00,91.1,68.1,29.88,South,172,2.0,7.0,47,0.00,CLR,,0.00,WeatherDisplay:10.37,2013-08-27 23:54:00,
2013-08-27 18:59:00,90.9,67.9,29.88,South,183,3.0,6.0,47,0.00,CLR,,0.00,WeatherDisplay:10.37,2013-08-27 23:59:00,
2013-08-27 19:04:00,90.6,67.6,29.87,South,175,2.0,6.0,47,0.00,CLR,,0.00,WeatherDisplay:10.37,2013-08-28 00:04:00,
2013-08-27 19:09:00,90.4,68.1,29.88,South,171,1.0,4.0,48,0.00,CLR,,0.00,WeatherDisplay:10.37,2013-08-28 00:09:00,
2013-08-27 19:14:00,90.3,67.3,29.88,South,181,2.0,5.0,47,0.00,CLR,,0.00,WeatherDisplay:10.37,2013-08-28 00:14:00,
2013-08-27 19:19:00,90.0,67.7,29.87,SSE,168,1.0,5.0,48,0.00,CLR,,0.00,WeatherDisplay:10.37,2013-08-28 00:19:00,
2013-08-27 19:24:00,89.9,67.6,29.88,SSE,165,1.0,4.0,48,0.00,CLR,,0.00,WeatherDisplay:10.37,2013-08-28 00:24:00,
2013-08-27 19:29:00,89.7,67.4,29.88,SSE,167,1.0,4.0,48,0.00,CLR,,0.00,WeatherDisplay:10.37,2013-08-28 00:29:00,
2013-08-27 19:34:00,89.5,67.8,29.88,SSE,160,2.0,4.0,49,0.00,CLR,,0.00,WeatherDisplay:10.37,2013-08-28 00:34:00,
2013-08-27 19:39:00,89.2,67.5,29.88,SSE,150,1.0,3.0,49,0.00,CLR,,0.00,WeatherDisplay:10.37,2013-08-28 00:39:00,
2013-08-27 19:44:00,88.8,67.8,29.88,SSE,149,1.0,3.0,50,0.00,CLR,,0.00,WeatherDisplay:10.37,2013-08-28 00:44:00,
2013-08-27 19:49:00,88.4,67.4,29.88,SSE,152,1.0,5.0,50,0.00,CLR,,0.00,WeatherDisplay:10.37,2013-08-28 00:49:00,
2013-08-27 19:54:00,88.0,67.6,29.88,SSE,152,1.0,2.0,51,0.00,CLR,,0.00,WeatherDisplay:10.37,2013-08-28 00:54:00,
2013-08-27 19:59:00,87.4,68.2,29.88,SSE,152,1.0,2.0,53,0.00,CLR,,0.00,WeatherDisplay:10.37,2013-08-28 00:59:00,
2013-08-27 20:04:00,86.7,68.1,29.89,SSE,152,1.0,1.0,54,0.00,CLR,,0.00,WeatherDisplay:10.37,2013-08-28 01:04:00,
2013-08-27 20:09:00,86.1,68.0,29.89,SSE,152,0.0,1.0,55,0.00,CLR,,0.00,WeatherDisplay:10.37,2013-08-28 01:09:00,
2013-08-27 20:14:00,85.5,69.0,29.89,SSE,152,0.0,1.0,58,0.00,CLR,,0.00,WeatherDisplay:10.37,2013-08-28 01:14:00,
2013-08-27 20:19:00,84.6,68.7,29.89,SSE,152,0.0,1.0,59,0.00,CLR,,0.00,WeatherDisplay:10.37,2013-08-28 01:19:00,
2013-08-27 20:24:00,83.4,69.0,29.89,SSE,152,0.0,1.0,62,0.00,CLR,,0.00,WeatherDisplay:10.37,2013-08-28 01:24:00,
2013-08-27 20:29:00,82.3,68.9,29.89,SSE,152,1.0,1.0,64,0.00,CLR,,0.00,WeatherDisplay:10.37,2013-08-28 01:29:00,
2013-08-27 20:34:00,81.3,68.8,29.89,SSE,152,1.0,2.0,66,0.00,CLR,,0.00,WeatherDisplay:10.37,2013-08-28 01:34:00,
2013-08-27 20:39:00,80.3,68.3,29.89,SSE,152,1.0,2.0,67,0.00,CLR,,0.00,WeatherDisplay:10.37,2013-08-28 01:39:00,
2013-08-27 20:44:00,79.5,68.9,29.89,SSE,152,0.0,1.0,70,0.00,CLR,,0.00,WeatherDisplay:10.37,2013-08-28 01:44:00,
2013-08-27 20:50:00,78.9,69.1,29.89,SSE,152,1.0,1.0,72,0.00,CLR,,0.00,WeatherDisplay:10.37,2013-08-28 01:50:00,
2013-08-27 20:59:00,77.8,68.4,29.89,SSE,152,0.0,1.0,73,0.00,CLR,,0.00,WeatherDisplay:10.37,2013-08-28 01:59:00,
2013-08-27 21:04:00,77.4,68.5,29.90,SSE,152,0.0,0.0,74,0.00,CLR,,0.00,WeatherDisplay:10.37,2013-08-28 02:04:00,
2013-08-27 21:09:00,77.1,68.1,29.90,SSE,152,1.0,1.0,74,0.00,CLR,,0.00,WeatherDisplay:10.37,2013-08-28 02:09:00,
2013-08-27 21:14:00,76.6,68.1,29.90,SSE,152,0.0,1.0,75,0.00,CLR,,0.00,WeatherDisplay:10.37,2013-08-28 02:14:00,
2013-08-27 21:19:00,76.3,68.2,29.90,SSE,152,0.0,1.0,76,0.00,CLR,,0.00,WeatherDisplay:10.37,2013-08-28 02:19:00,
2013-08-27 21:24:00,76.0,67.9,29.90,SSE,152,0.0,1.0,76,0.00,CLR,,0.00,WeatherDisplay:10.37,2013-08-28 02:24:00,
2013-08-27 21:29:00,75.8,68.0,29.90,SSE,152,0.0,0.0,77,0.00,CLR,,0.00,WeatherDisplay:10.37,2013-08-28 02:29:00,
2013-08-27 21:34:00,75.6,67.9,29.90,SSE,152,0.0,2.0,77,0.00,CLR,,0.00,WeatherDisplay:10.37,2013-08-28 02:34:00,
2013-08-27 21:39:00,75.5,67.8,29.90,SSE,152,0.0,2.0,77,0.00,CLR,,0.00,WeatherDisplay:10.37,2013-08-28 02:39:00,
2013-08-27 21:44:00,75.5,67.4,29.90,SSE,152,1.0,2.0,76,0.00,CLR,,0.00,WeatherDisplay:10.37,2013-08-28 02:44:00,
2013-08-27 21:49:00,75.7,67.6,29.90,SSE,152,1.0,2.0,76,0.00,CLR,,0.00,WeatherDisplay:10.37,2013-08-28 02:49:00,
2013-08-27 21:54:00,75.7,67.6,29.90,SSE,152,1.0,2.0,76,0.00,CLR,,0.00,WeatherDisplay:10.37,2013-08-28 02:54:00,
2013-08-27 21:59:00,75.7,67.6,29.90,SSE,152,0.0,1.0,76,0.00,CLR,,0.00,WeatherDisplay:10.37,2013-08-28 02:59:00,
2013-08-27 22:04:00,75.5,67.4,29.90,SSE,152,0.0,1.0,76,0.00,CLR,,0.00,WeatherDisplay:10.37,2013-08-28 03:04:00,
2013-08-27 22:09:00,75.4,67.7,29.91,SSE,152,0.0,0.0,77,0.00,CLR,,0.00,WeatherDisplay:10.37,2013-08-28 03:09:00,
2013-08-27 22:14:00,75.2,67.5,29.91,SSE,152,0.0,0.0,77,0.00,CLR,,0.00,WeatherDisplay:10.37,2013-08-28 03:14:00,
2013-08-27 22:24:00,75.0,67.3,29.91,SSE,152,0.0,2.0,77,0.00,CLR,,0.00,WeatherDisplay:10.37,2013-08-28 03:24:00,
2013-08-27 22:29:00,75.1,67.0,29.91,SSE,149,1.0,3.0,76,0.00,CLR,,0.00,WeatherDisplay:10.37,2013-08-28 03:29:00,
2013-08-27 22:39:00,75.7,66.8,29.91,SE,144,1.0,3.0,74,0.00,CLR,,0.00,WeatherDisplay:10.37,2013-08-28 03:39:00,
2013-08-27 22:44:00,75.9,66.6,29.91,SSE,147,1.0,2.0,73,0.00,CLR,,0.00,WeatherDisplay:10.37,2013-08-28 03:44:00,
2013-08-27 22:54:00,76.1,66.4,29.91,SE,133,1.0,2.0,72,0.00,CLR,,0.00,WeatherDisplay:10.37,2013-08-28 03:54:00,
2013-08-27 23:04:00,76.2,66.1,29.91,SE,135,1.0,2.0,71,0.00,CLR,,0.00,WeatherDisplay:10.37,2013-08-28 04:04:00,
2013-08-27 23:09:00,76.4,65.9,29.91,SE,145,1.0,3.0,70,0.00,CLR,,0.00,WeatherDisplay:10.37,2013-08-28 04:09:00,
2013-08-27 23:14:00,76.7,65.4,29.91,SE,145,1.0,4.0,68,0.00,CLR,,0.00,WeatherDisplay:10.37,2013-08-28 04:14:00,
2013-08-27 23:19:00,77.1,65.3,29.91,SSE,154,1.0,4.0,67,0.00,CLR,,0.00,WeatherDisplay:10.37,2013-08-28 04:19:00,
2013-08-27 23:24:00,77.5,64.8,29.91,SSE,151,2.0,4.0,65,0.00,CLR,,0.00,WeatherDisplay:10.37,2013-08-28 04:24:00,
2013-08-27 23:29:00,77.8,65.1,29.91,SSE,147,2.0,6.0,65,0.00,CLR,,0.00,WeatherDisplay:10.37,2013-08-28 04:29:00,
2013-08-27 23:34:00,78.0,64.8,29.91,SE,146,2.0,6.0,64,0.00,CLR,,0.00,WeatherDisplay:10.37,2013-08-28 04:34:00,
2013-08-27 23:39:00,78.1,64.5,29.91,SSE,156,2.0,7.0,63,0.00,CLR,,0.00,WeatherDisplay:10.37,2013-08-28 04:39:00,
2013-08-27 23:44:00,78.3,64.7,29.91,SSE,160,1.0,6.0,63,0.00,CLR,,0.00,WeatherDisplay:10.37,2013-08-28 04:44:00,
2013-08-27 23:49:00,78.5,64.4,29.91,SSE,158,2.0,7.0,62,0.00,CLR,,0.00,WeatherDisplay:10.37,2013-08-28 04:49:00,
2013-08-27 23:54:00,78.6,64.5,29.91,SSE,151,2.0,6.0,62,0.00,CLR,,0.00,WeatherDisplay:10.37,2013-08-28 04:54:00,
2013-08-27 23:59:00,78.6,64.5,29.91,SE,145,2.0,6.0,62,0.00,CLR,,0.00,WeatherDisplay:10.37,2013-08-28 04:59:00,